DateTimeUTC,F1_A11,F1_S11,BsB_S11,BsG_S11,BsR_S11,BbsB_S11,BbsG_S11,BbsR_S11,BaB_A11,BaG_A11,BaR_A11,Tu_S11,T_S11,Uu_S11,U_S11,P_S11,T1_A11
2021-05-31T02:00:00Z,00000200,21000000,,,,,,,-000.42,-000.19,-000.03,17.1,24.5,,00.0,0658.2,31.0
2021-05-31T02:01:00Z,00000200,21000000,,,,,,,-000.00,-000.10,-000.03,17.1,24.5,,00.0,0658.2,31.0
2021-05-31T02:02:00Z,00000200,21000000,,,,,,,-000.24,-000.04,-000.33,17.1,24.5,,00.0,0658.2,31.0
2021-05-31T02:03:00Z,00000200,61000000,,,,,,,0000.23,-000.02,0000.21,17.1,24.5,,00.0,0658.2,31.0
2021-05-31T02:04:00Z,00000200,41000000,0000.42,0000.18,-000.02,0000.21,0000.03,-000.20,-000.05,0000.19,-000.23,17.2,24.2,00.1,00.0,0659.1,31.0
2021-05-31T02:05:00Z,00000200,01000000,-000.10,0000.37,0000.07,-000.70,-000.13,-000.08,0000.19,0000.26,0000.49,17.3,24.2,00.1,00.0,0659.2,31.0
2021-05-31T02:06:00Z,00000200,01000000,0000.61,0000.10,-000.05,0000.52,-000.04,0000.17,0000.46,0000.54,0000.13,17.4,24.2,00.0,00.0,0659.1,30.9
2021-05-31T02:07:00Z,00000200,01000000,0000.13,0000.52,-000.17,-000.04,0000.04,0000.04,-000.38,-000.45,-000.19,17.4,24.2,00.1,00.1,0659.2,31.0
2021-05-31T02:08:00Z,00000200,01000000,-000.08,0000.10,0000.18,0000.12,0000.20,0000.03,0000.17,-000.38,-000.01,17.4,24.2,00.1,00.1,0659.2,31.0
2021-05-31T02:09:00Z,00000200,01000000,0000.14,0000.22,0000.34,-000.17,-000.10,-000.03,0000.74,0000.95,0000.65,17.4,24.2,00.2,00.1,0659.2,31.0
2021-05-31T02:10:00Z,00000200,01000000,-000.09,0000.35,0000.22,-000.17,-000.12,0000.11,-000.19,-000.27,-000.34,17.4,24.2,00.1,00.1,0659.2,31.0
2021-05-31T02:11:00Z,00000200,01000000,0000.19,0000.09,0000.03,0000.03,-000.27,-000.08,-000.01,0000.03,-000.17,17.4,24.2,00.1,00.1,0659.1,31.0
2021-05-31T02:12:00Z,00000200,01000000,0000.60,0000.11,0000.07,0000.08,0000.21,0000.07,-000.55,-000.32,0000.06,17.4,24.2,00.1,00.1,0659.2,31.0
2021-05-31T02:13:00Z,00000200,01000000,0000.59,0000.04,-000.30,-000.43,0000.03,-000.06,0000.43,0000.60,0000.06,17.4,24.1,00.1,00.1,0659.2,31.0
2021-05-31T02:14:00Z,00000200,01000000,0000.02,0000.01,0000.08,0000.16,-000.13,0000.57,-000.02,-000.53,0000.13,17.4,24.1,00.1,00.1,0659.1,31.0
2021-05-31T02:15:00Z,00000200,01000000,0000.02,0000.08,0000.19,-000.12,-000.31,0000.36,0000.21,0000.54,-000.06,17.4,24.1,00.1,00.1,0659.1,31.0
2021-05-31T02:16:00Z,00000200,01000000,0000.22,0000.14,0000.19,0000.00,-000.03,0000.12,0000.10,0000.10,0000.19,17.4,24.1,00.1,00.1,0659.2,31.0
2021-05-31T02:17:00Z,00000200,01000000,0000.87,0000.18,-000.04,-000.21,-000.05,0000.33,0000.37,0000.20,0000.40,17.4,24.1,00.1,00.1,0659.2,31.0
2021-05-31T02:18:00Z,00000200,01000000,0000.04,0000.12,0000.07,0000.48,-000.06,0000.17,-000.16,-000.16,-000.14,17.3,24.1,00.2,00.1,0659.2,31.0
2021-05-31T02:19:00Z,00000200,01000000,0000.15,0000.39,0000.30,0000.32,-000.05,0000.11,0000.34,0000.42,0000.22,17.3,24.1,00.1,00.1,0659.2,31.0
2021-05-31T02:20:00Z,00000200,01000000,0000.68,0000.04,0000.07,0000.35,0000.04,0000.03,0000.23,0000.49,0000.18,17.4,24.1,00.2,00.1,0659.2,30.9
2021-05-31T02:21:00Z,00000200,01000000,0000.42,0000.28,0000.07,-000.14,-000.05,0000.30,-000.16,-000.32,0000.07,17.4,24.1,00.1,00.1,0659.2,31.0
2021-05-31T02:22:00Z,00000200,01000000,0000.94,-000.07,0000.25,-000.07,-000.15,0000.00,0000.66,0000.39,-000.03,17.5,24.1,00.2,00.1,0659.2,31.0
2021-05-31T02:23:00Z,00000200,01000000,0000.38,0000.30,0000.09,-000.21,-000.26,0000.14,-000.00,-000.16,0000.54,17.5,24.1,00.3,00.2,0659.2,31.0
2021-05-31T02:24:00Z,00000200,01000000,0001.03,0000.22,-000.23,-000.15,0000.33,-000.16,0000.02,0000.16,-000.09,17.5,24.2,00.2,00.1,0659.2,31.0
2021-05-31T02:25:00Z,00000200,01000000,0000.08,0000.44,0000.13,-000.17,-000.18,-000.01,0000.51,0000.02,0000.17,17.5,24.2,00.2,00.1,0659.2,31.0
2021-05-31T02:26:00Z,00000200,01000000,0000.08,0000.18,0000.14,0000.29,-000.06,0000.21,-000.34,0000.44,0000.15,17.5,24.2,00.3,00.2,0659.2,31.0
2021-05-31T02:27:00Z,00000200,01000000,0000.15,0000.02,0000.20,0000.08,0000.03,0000.03,0000.41,0000.25,0000.32,17.5,24.2,00.3,00.2,0659.2,31.0
2021-05-31T02:28:00Z,00000200,01000000,0000.76,0000.19,0000.24,-000.63,-000.13,0000.22,0000.05,-000.18,-000.38,17.5,24.1,00.3,00.2,0659.2,31.0
2021-05-31T02:29:00Z,00000200,01000000,0000.39,0000.45,-000.02,0000.35,0000.01,-000.10,0000.27,0000.08,0000.26,17.5,24.1,00.5,00.3,0659.2,31.0
2021-05-31T02:30:00Z,00000200,01000000,0000.69,0000.28,0000.22,-000.15,0000.09,-000.21,-000.01,0000.27,-000.05,17.5,24.1,00.5,00.3,0659.2,31.0
2021-05-31T02:31:00Z,00000200,01000000,0000.12,0000.03,0000.01,0000.52,-000.14,0000.36,0000.03,0000.50,0000.09,17.4,24.1,00.5,00.4,0659.2,31.0
2021-05-31T02:32:00Z,00000200,01000000,0000.82,0000.50,-000.09,0000.70,-000.32,-000.08,0000.41,-000.22,0000.38,17.4,24.1,00.4,00.3,0659.2,31.0
2021-05-31T02:33:00Z,00000200,01000000,0000.35,0000.14,-000.11,0000.03,0000.09,0000.16,0000.14,0000.40,0000.04,17.4,24.1,00.5,00.4,0659.2,31.0
2021-05-31T02:34:00Z,00000200,01000000,-000.14,0000.19,0000.11,0000.27,0000.17,0000.23,0000.26,0000.08,0000.18,17.4,24.1,00.5,00.3,0659.2,31.0
2021-05-31T02:35:00Z,00000200,01000000,-000.07,0000.21,-000.00,0000.00,0000.29,0000.25,0000.27,0000.34,0000.02,17.4,24.1,00.7,00.4,0659.2,31.0
2021-05-31T02:36:00Z,00000200,01000000,0000.29,0000.07,0000.03,-000.09,0000.03,0000.07,0000.04,-000.07,0000.32,17.4,24.1,00.6,00.4,0659.2,31.0
2021-05-31T02:37:00Z,00000200,01000000,0000.80,0000.19,0000.02,0000.01,-000.37,0000.14,0000.24,0000.29,0000.04,17.4,24.1,00.6,00.4,0659.2,31.0
2021-05-31T02:38:00Z,00000200,01000000,0000.30,-000.16,0000.07,-000.02,-000.20,0000.22,-000.03,-000.18,-000.13,17.4,24.1,00.7,00.5,0659.2,31.0
2021-05-31T02:39:00Z,00000200,01000000,-000.18,-000.16,0000.11,-000.08,-000.20,0000.37,0000.30,0000.26,0000.38,17.4,24.0,00.9,00.6,0659.2,31.0
2021-05-31T02:40:00Z,00000200,01000000,0000.74,0000.25,-000.02,0000.16,-000.16,0000.12,0000.33,0000.28,-000.09,17.4,24.0,00.8,00.5,0659.2,31.0
2021-05-31T02:41:00Z,00000200,01000000,0000.61,0000.16,0000.12,0000.19,-000.18,-000.03,-000.32,-000.14,-000.00,17.3,24.0,00.8,00.5,0659.2,31.0
2021-05-31T02:42:00Z,00000200,01000000,-000.11,0000.33,0000.28,0000.42,-000.01,0000.34,0000.04,0000.09,-000.09,17.3,24.0,00.8,00.5,0659.2,31.0
2021-05-31T02:43:00Z,00000200,01000000,0000.67,0000.27,0000.04,-000.08,-000.05,0000.22,0000.31,0000.24,0000.60,17.3,24.0,00.9,00.6,0659.2,31.0
2021-05-31T02:44:00Z,00000200,01000000,0000.11,0000.24,0000.04,0000.17,0000.08,0000.22,0000.11,-000.07,-000.10,17.3,24.0,00.8,00.5,0659.3,31.0
2021-05-31T02:45:00Z,00000200,01000000,0000.48,-000.18,0000.22,0000.23,0000.04,0000.06,-000.14,-000.05,0000.14,17.3,24.0,00.8,00.5,0659.3,31.0
2021-05-31T02:46:00Z,00000200,01000000,0000.24,0000.26,-000.11,0000.30,-000.02,0000.12,0000.18,0000.11,-000.61,17.3,24.0,00.7,00.5,0659.3,31.0
2021-05-31T02:47:00Z,00000200,01000000,0000.35,0000.34,0000.25,-000.18,-000.04,0000.04,-000.19,-000.06,0000.25,17.3,24.0,00.7,00.5,0659.3,31.0
2021-05-31T02:48:00Z,00000200,01000000,-000.08,0000.17,0000.36,0000.18,0000.05,0000.13,0000.21,0000.01,0000.10,17.3,24.0,00.7,00.4,0659.3,31.0
2021-05-31T02:49:00Z,00000200,01000000,0000.77,0000.42,0000.20,-000.17,-000.15,0000.11,0000.07,0000.47,0000.21,17.3,24.0,00.7,00.4,0659.3,31.0
2021-05-31T02:50:00Z,00000200,01000000,0000.93,0000.36,-000.05,-000.13,-000.12,0000.10,0000.31,0000.35,0000.32,17.3,24.0,00.7,00.5,0659.3,30.9
2021-05-31T02:51:00Z,00000200,01000000,0000.55,0000.01,0000.18,0000.15,-000.13,-000.08,0000.37,-000.07,-000.18,17.4,24.0,00.7,00.5,0659.3,31.0
2021-05-31T02:52:00Z,00000200,01000000,0000.66,0000.46,0000.49,0000.13,-000.01,0000.20,0000.09,0000.11,0000.22,17.5,24.0,00.7,00.4,0659.2,31.0
2021-05-31T02:53:00Z,00000200,01000000,0000.11,0000.55,0000.07,-000.04,0000.00,0000.27,0000.04,0000.33,0000.10,17.5,24.1,00.8,00.5,0659.2,31.0
2021-05-31T02:54:00Z,00000200,01000000,0000.14,0000.52,0000.05,-000.47,0000.05,0000.06,0000.43,0000.27,0000.53,17.5,24.1,00.9,00.6,0659.2,31.0
2021-05-31T02:55:00Z,00000200,01000000,0000.21,0000.41,0000.27,0000.15,0000.04,-000.00,0000.20,-000.14,-000.19,17.5,24.1,01.0,00.7,0659.2,31.0
2021-05-31T02:56:00Z,00000200,01000000,0001.52,0000.41,-000.01,0000.22,-000.07,-000.02,0000.19,0000.84,0000.19,17.5,24.1,01.0,00.7,0659.2,31.0
2021-05-31T02:57:00Z,00000200,41000000,,,,,,,0000.00,-000.55,0000.03,17.6,24.2,01.2,00.8,0659.2,31.0
2021-05-31T02:58:00Z,00000200,61000000,,,,,,,0000.16,0000.38,0000.05,17.2,24.3,00.7,00.5,0658.3,31.0
2021-05-31T02:59:00Z,00000200,21000000,,,,,,,0000.17,0000.15,0000.15,17.2,24.4,00.8,00.5,0658.3,31.0
